Cincinnati, OH

7:31 PM EDT on August 24, 2016 (GMT -0400)
Mt Adams | | Change Station

Elev 797 ft 39.11 °N, 84.50 °W | Updated 5 seconds ago

Clear
Clear
83.8 °F
Feels Like 89 °F
N
9.2
Wind Variable Wind from WSW
Gusts 9.2 mph

Today
High -- | Low -- °F
--% Chance of Precip.
Yesterday
High -- | Low -- °F
Precip. -- in
Pressure 30.05 in
Visibility 10.0 miles
Clouds Clear
Heat Index 89 °F
Dew Point 72 °F
Humidity 68%
Rainfall 0.00 in
Snow Depth Not available.
6:59 AM 8:19 PM
Waning Gibbous, 52% visible
METAR KLUK 242253Z 20005KT 10SM CLR 27/23 A3006 RMK AO2 SLP176 T02720233
Pressure 30.05 in
Visibility 10.0 miles
Clouds Clear
Heat Index 89 °F
Dew Point 72 °F
Humidity 68%
Rainfall 0.00 in
Snow Depth Not available.
6:59 AM 8:19 PM
Waning Gibbous, 52% visible
METAR KLUK 242253Z 20005KT 10SM CLR 27/23 A3006 RMK AO2 SLP176 T02720233

10-Day Weather Forecast

Almanac

Astronomy

Aug. 24, 2016 Rise Set
Actual Time
Civil Twilight
Nautical Twilight
Astronomical Twilight
Moon
Length of Visible Light
Length of Day
Tomorrow will be .
, % of the Moon is Illuminated

Today's Extremes

State Highs State Lows

Community

WunderPhotos

Upload Photos

1,934,738 photos uploaded!

WunderBlog® & News

Nearby

Air Quality

  Air Quality AQ Index Pollutant
Not available.

Snow Depth

Station Depth Elevation

Earthquake Activity

City Distance Mag. Time & Date
Minimum magnitude displayed is 2.5.

Coastal Water Temperatures

Place Temperature

Stations

Nearby Weather Stations

Station Location Temp. Windchill Dew Point Humidity Wind Precip. Elev Updated Type
                   

Watches & Warnings

There are currently no watches in effect.